SCP
0 0 0 0 0 0 0 0 0 0 0 0 0 0 0 0 0 0 0 0 0 0 0 0 0 0 0 0 0 0 0 0 0 0 0 0 0 0 0 0 0 0 0 0
0 0 0 0 0 0 0 0 0 0 0 0 0 0 0 0 0 0 0 0 0 0 0 0 0 0 0 0 0 0 0 0 0 0 0 0 0 0 0 0 0 0 0 0
0 0 0 0 0 0 0 0 0 0 0 0 0 0 0 0 0 0 0 0 0 0 0 0 0 0 0 0 0 0 0 0 0 0 0 0 0 0 0 0 0 0 0 0
0 0 0 0 0 0 0 0 0 0 0 0 0 0 0 0 0 0 0 0 0 0 0 0 0 0 0 0 0 0 0 0 0 0 0 0 0 0 0 0 0 0 0 0
0 0 0 0 0 0 0 0 0 0 0 0 0 0 0 0 0 0 0 0 0 0 0 0 0 0 0 0 0 0 0 0 0 0 0 0 0 0 0 0 0 0 0 0
0 0 0 0 0 0 0 0 0 0 0 0 0 0 0 0 0 0 0 0 0 0 0 0 0 0 0 0 0 0 0 0 0 0 0 0 0 0 0 0 0 0 0 0
0 0 0 0 0 0 0 0 0 0 0 0 0 0 0 0 0 0 0 0 0 0 0 0 0 0 0 0 0 0 0 0 0 0 0 0 0 0 0 0 0 0 0 0
0 0 0 0 0 0 0 0 0 0 0 0 0 0 0 0 0 0 0 0 0 0 0 0 0 0 0 0 0 0 0 0 0 0 0 0 0 0 0 0 0 0 0 0
0 0 0 0 0 0 0 0 0 0 0 0 0 0 0 0 0 0 0 0 0 0 0 0 0 0 0 0 0 0 0 0 0 0 0 0 0 0 0 0 0 0 0 0
0 0 0 0 0 0 0 0 0 0 0 0 0 0 0 0 0 0 0 0 0 0 0 0 0 0 0 0 0 0 0 0 0 0 0 0 0 0 0 0 0 0 0 0
0 0 0 0 0 0 0 0 0 0 0 0 0 0 0 0 0 0 0 0 0 0 0 0 0 0 0 0 0 0 0 0 0 0 0 0 0 0 0 0 0 0 0 0
0 0 0 0 0 0 0 0 0 0 0 0 0 0 0 0 0 0 0 0 0 0 0 0 0 0 0 0 0 0 0 0 0 0 0 0 0 0 0 0 0 0 0 0
0 0 0 0 0 0 0 0 0 0 0 0 0 0 0 0 0 0 0 0 0 0 0 0 0 0 0 0 0 0 0 0 0 0 0 0 0 0 0 0 0 0 0 0
0 0 0 0 0 0 0 0 0 0 0 0 0 0 0 0 0 0 0 0 0 0 0 0 0 0 0 0 0 0 0 0 0 0 0 0 0 0 0 0 0 0 0 0
0 0 0 0 0 0 0 0 0 0 0 0 0 0 0 0 0 0 0 0 0 0 0 0 0 0 0 0 0 0 0 0 0 0 0 0 0 0 0 0 0 0 0 0
0 0 0 0 0 0 0 0 0 0 0 0 0 0 0 0 0 0 0 0 0 0 0 0 0 0 0 0 0 0 0 0 0 0 0 0 0 0 0 0 0 0 0 0
0 0 0 0 0 0 0 0 0 0 0 0 0 0 0 0 0 0 0 0 0 0 0 0 0 0 0 0 0 0 0 0 0 0 0 0 0 0 0 0 0 0 0 0
0 0 0 0 0 0 0 0 0 0 0 0 0 0 0 0 0 0 0 0 0 0 0 0 0 0 0 0 0 0 0 0 0 0 0 0 0 0 0 0 0 0 0 0
0 0 0 0 0 0 0 0 0 0 0 0 0 0 0 0 0 0 0 0 0 0 0 0 0 0 0 0 0 0 0 0 0 0 0 0 0 0 0 0 0 0 0 0
0 0 0 0 0 0 0 0 0 0 0 0 0 0 0 0 0 0 0 0 0 0 0 0 0 0 0 0 0 0 0 0 0 0 0 0 0 0 0 0 0 0 0 0
0 0 0 0 0 0 0 0 0 0 0 0 0 0 0 0 0 0 0 0 0 0 0 0 0 -0 -0 -0 0 0 0 0 0 0 0 0 0 0 0 0 0 0 0 0
0 0 0 0 0 0 0 0 0 0 0 0 0 0 0 0 0 0 0 0 0 0 0 0 0 0 0 0 0 0 0 0 0 0 0 0 0 0 0 0 0 0 0 0
0 0 0 0 0 0 0 0 0 0 0 0 0 0 0 0 0 0 0 0 0 0 0 0 0 0 0 0 0 0 0 0 0 0 0 0 0 0 0 0 0 0 0 0
0 0 0 0 0 0 0 0 0 0 0 0 0 0 0 0 0 0 0 0 0 0 0 0 0 0 0 0 0 0 0 0 0 0 0 0 0 0 0 0 0 0 0 0
0 0 0 0 0 0 0 0 0 0 0 0 0 0 0 0 0 0 0 0 0 0 0 0 0 0 0 0 0 0 0 0 0 0 0 0 0 0 0 0 0 0 0 0
0 0 0 0 0 0 0 0 0 0 0 0 0 0 0 0 0 0 0 0 0 0 0 0 0 0 0 0 0 0 0 0 0 0 0 0 0 0 0 0 0 0 0 0
0 0 0 0 0 0 0 0 0 0 0 0 0 0 0 0 0 0 0 0 0 0 0 0 0 0 0 0 0 0 0 0 0 0 0 0 0 0 0 0 0 0 0 0
Wind_Speed
10 10 6 8 11 10 14 15 16 19 21 28 23 10 9 10 10 10 10 10 10 11 11 11 12 13 14 14 14 14 14 14 14 11 9 8 7 7 7 6 7 6 7 8
7 9 9 10 16 19 18 16 19 23 27 26 18 8 8 10 10 11 11 11 11 11 11 12 15 15 15 15 15 14 15 14 12 10 9 9 8 7 7 7 6 6 7 8
7 5 5 11 15 17 11 11 11 18 22 17 13 12 10 10 9 10 12 11 11 11 13 14 15 15 17 16 14 15 15 13 12 11 11 10 9 8 8 7 6 7 7 8
4 2 13 13 6 8 11 14 14 16 18 14 11 8 8 9 10 12 11 11 11 10 10 11 11 13 12 12 14 15 14 13 13 12 11 10 9 9 8 6 6 6 7 8
3 6 13 10 9 7 8 12 11 17 20 15 5 5 9 9 8 11 11 10 10 9 8 7 10 11 12 13 14 15 16 15 14 13 12 11 11 10 8 6 7 6 6 7
4 6 12 9 4 1 1 10 8 7 11 7 3 2 8 7 4 6 8 8 8 7 6 7 8 9 13 14 16 18 18 16 14 13 13 12 12 10 7 7 7 6 6 6
8 10 14 10 3 3 5 10 5 2 3 2 5 9 9 8 8 9 10 11 9 7 8 9 7 11 14 15 19 17 12 12 13 13 13 12 10 8 7 7 6 6 6 5
7 8 15 7 6 9 10 5 5 6 5 5 8 11 11 11 11 11 11 11 10 8 10 8 8 12 15 18 15 10 12 13 13 13 12 10 10 9 8 7 6 6 5 5
13 13 7 4 9 8 5 7 9 8 9 9 10 12 13 11 11 11 11 11 9 9 11 8 9 13 18 15 10 12 14 14 13 13 12 11 11 10 7 7 6 5 5 5
9 11 11 9 9 11 11 12 12 11 12 11 12 14 14 13 11 10 10 10 9 8 10 11 10 15 17 10 11 14 14 14 13 13 12 11 9 9 8 7 6 6 5 5
17 12 11 11 10 10 10 11 12 13 12 11 12 13 12 11 11 10 10 9 7 8 11 14 10 12 12 10 13 14 13 12 12 12 12 11 10 9 9 8 8 7 6 5
24 15 15 15 11 14 15 14 14 14 13 11 9 10 10 10 9 9 10 10 9 9 11 13 9 10 10 11 14 14 13 12 11 10 10 9 9 8 13 12 14 15 13 9
24 20 19 17 12 11 11 12 12 10 10 10 8 7 8 8 8 9 10 11 11 12 12 12 10 10 9 12 14 15 14 13 11 11 11 11 10 9 8 10 13 14 14 13
15 14 15 13 13 10 9 9 7 6 7 7 7 7 8 8 9 11 12 12 12 12 12 11 10 10 9 12 14 15 13 15 13 10 11 11 11 10 9 8 7 5 7 10
13 11 10 8 6 5 5 5 6 7 8 8 8 8 9 10 11 13 13 12 11 12 12 10 10 10 7 11 14 14 12 10 10 9 9 10 9 9 8 8 7 5 3 4
6 4 3 3 4 5 5 6 6 8 9 9 10 11 11 11 12 13 12 10 10 13 13 11 12 10 7 11 13 11 11 18 14 9 9 9 9 9 9 8 7 6 6 5
1 2 3 3 4 5 5 5 7 8 9 11 12 12 12 12 12 13 13 11 10 12 13 12 12 8 7 10 12 9 9 13 21 12 10 10 10 10 10 9 8 7 6 7
6 4 3 1 2 5 7 7 8 9 10 12 12 12 12 13 14 14 14 13 13 14 13 10 9 7 7 9 10 8 9 9 10 9 10 10 10 9 9 9 9 8 5 7
3 2 2 3 5 6 7 9 9 10 11 11 11 12 13 13 13 14 12 11 13 15 12 8 12 8 6 10 12 7 9 10 9 9 9 13 12 9 9 9 9 8 7 6
2 3 4 6 7 7 8 9 10 11 11 10 12 13 13 13 13 12 11 11 11 11 10 11 9 7 6 8 13 7 10 11 11 10 10 10 10 10 10 9 9 8 8 7
5 6 7 8 9 9 10 10 11 12 12 11 12 14 14 14 13 11 11 12 12 10 9 13 8 5 5 7 13 8 10 10 11 11 11 11 11 10 10 10 9 9 8 7
6 7 8 9 10 12 10 10 11 12 13 12 12 13 13 14 13 11 10 10 12 14 10 7 6 8 9 10 8 9 10 11 10 10 10 10 10 11 10 10 10 9 8 7
7 8 10 11 12 13 13 11 11 11 12 13 13 14 14 13 11 11 13 9 8 14 10 7 11 15 15 8 7 9 11 11 11 10 10 10 10 10 10 11 10 9 8 8
9 10 10 11 10 11 14 13 12 10 12 12 12 13 13 12 11 9 10 15 19 19 10 12 18 18 15 6 8 9 10 11 10 10 10 9 9 9 8 9 9 8 8 9
10 10 10 10 11 10 12 13 12 12 12 10 11 12 10 9 11 12 11 12 17 18 11 13 18 17 10 6 8 10 10 10 10 10 10 10 9 9 9 9 9 9 9 8
10 9 9 10 10 10 10 9 10 10 11 12 11 9 9 9 11 11 10 11 13 16 12 8 8 10 6 6 8 10 10 12 13 12 10 10 10 9 9 9 10 9 9 8
9 9 8 9 8 8 8 9 10 11 11 12 14 12 11 10 10 11 11 10 10 9 8 7 7 6 6 6 7 9 10 10 10 10 10 9 9 9 9 10 9 8 8 9
Wind_Direction
254 263 247 242 248 230 217 223 237 254 255 265 271 268 254 259 267 270 264 252 238 231 226 217 211 208 206 202 196 191 192 197 204 201 196 197 203 209 216 226 241 247 258 265
271 260 248 252 254 249 242 237 242 258 266 265 276 279 265 264 265 266 263 256 248 238 229 220 215 211 206 203 197 191 195 201 198 189 191 198 204 209 219 231 241 250 257 264
265 280 310 262 237 237 229 218 215 244 256 271 277 269 262 263 258 255 259 261 256 244 232 227 218 209 207 203 191 193 198 197 192 189 195 201 205 209 221 230 240 250 257 261
260 296 242 245 233 225 238 248 228 246 261 266 261 276 267 254 255 264 265 264 262 253 242 232 218 208 203 191 191 196 198 196 192 190 195 196 202 214 223 226 236 247 256 262
212 245 269 286 271 218 220 271 239 243 261 271 297 319 292 266 237 244 258 264 265 260 249 234 214 199 189 192 194 198 201 198 193 189 191 193 206 217 220 221 235 242 251 257
202 226 252 255 257 173 134 285 277 243 261 286 88 319 279 292 301 280 278 276 275 275 257 237 215 184 190 198 199 206 204 198 190 187 190 197 207 212 212 218 233 242 251 252
220 237 261 260 248 143 219 256 304 325 280 267 208 231 259 295 296 287 285 282 279 270 254 242 202 185 201 206 212 210 195 186 185 188 192 196 198 204 208 218 228 237 251 258
195 221 255 238 160 199 233 297 316 315 308 286 263 268 277 283 283 285 287 285 279 267 261 244 195 195 211 219 215 187 180 183 186 187 188 190 193 201 205 211 224 237 247 259
204 226 256 198 216 250 292 291 291 295 297 295 284 281 283 282 282 284 280 279 273 260 264 250 207 204 221 223 192 178 182 187 186 184 187 186 188 195 199 205 216 230 235 251
252 257 267 272 261 263 262 264 275 282 287 289 283 283 286 286 285 284 282 280 276 268 264 260 226 218 227 212 179 182 189 189 185 184 186 189 189 192 197 202 209 219 227 238
265 271 281 261 262 278 294 297 295 295 292 287 284 285 284 286 287 286 285 284 279 268 265 266 248 229 222 197 182 188 190 189 188 188 186 189 194 197 198 203 200 204 214 218
267 270 270 279 281 287 290 292 297 300 299 296 287 284 290 291 291 291 292 292 290 280 273 273 260 239 216 195 189 188 190 189 187 186 185 186 189 197 215 211 223 228 222 216
262 269 271 280 282 282 285 293 297 297 298 301 301 297 300 297 296 298 298 298 294 289 283 279 268 247 215 195 192 195 195 189 186 185 184 184 186 186 193 213 224 229 232 236
260 270 276 282 289 298 302 306 310 315 315 310 305 307 307 301 301 303 299 296 294 293 290 284 272 255 218 195 195 199 196 193 188 187 184 184 185 185 183 184 193 213 227 233
265 266 274 291 310 324 331 338 342 334 326 320 312 309 308 305 302 298 297 297 297 295 292 287 275 263 217 195 197 199 196 194 189 183 183 182 181 179 179 184 187 185 181 221
282 305 329 354 360 358 357 354 341 324 315 309 307 305 300 294 291 292 293 293 297 299 298 292 280 266 218 198 198 198 197 198 187 181 181 180 180 179 178 182 185 188 193 196
232 28 36 29 10 351 335 318 305 301 301 299 296 296 298 299 299 298 300 300 293 289 287 283 280 269 222 200 196 195 191 198 195 186 184 183 183 183 180 179 185 191 195 193
113 122 125 147 293 301 301 296 291 292 290 288 290 293 296 297 296 296 297 300 302 299 293 279 274 266 229 204 196 190 186 190 188 180 182 186 186 184 179 180 185 187 182 198
126 149 218 255 266 271 276 283 286 285 286 288 291 292 290 288 287 288 291 296 299 299 297 296 301 285 236 213 198 188 184 186 187 181 180 190 189 183 181 180 183 185 181 183
237 253 265 274 277 277 284 287 289 290 290 291 292 292 292 291 290 291 292 288 281 275 280 292 295 274 242 220 205 187 186 188 189 184 182 187 186 184 184 181 180 181 182 183
277 282 288 290 292 290 288 290 293 295 295 292 290 290 291 292 292 290 291 293 289 284 286 294 289 263 236 222 208 189 189 190 190 186 185 188 187 185 184 181 180 184 183 182
280 285 289 292 295 297 296 292 290 291 292 292 290 289 292 294 294 290 277 275 282 290 294 282 274 264 254 230 202 190 192 193 191 187 186 188 187 185 185 181 181 184 181 176
282 285 288 291 293 295 298 295 289 287 289 291 293 293 291 290 291 292 295 288 285 292 293 274 276 276 265 232 199 194 193 193 192 189 188 189 189 186 184 181 181 180 174 172
281 284 284 286 290 294 296 296 292 288 285 285 283 281 283 289 288 276 274 286 293 295 289 282 285 280 269 224 196 194 193 193 191 189 188 188 187 183 183 180 177 175 171 169
276 280 284 289 293 292 291 295 297 295 292 289 286 282 277 273 279 287 286 285 288 294 289 285 286 282 266 221 199 193 190 190 189 187 188 186 184 182 182 179 177 173 171 170
275 278 278 276 278 283 287 290 292 294 296 297 295 290 285 282 279 282 284 283 280 286 286 279 276 271 250 223 203 191 185 189 194 192 186 183 182 180 180 178 174 173 169 166
273 274 277 280 279 275 277 282 287 290 290 292 295 294 291 290 288 287 286 286 285 281 278 274 268 257 241 222 200 186 181 182 184 182 179 178 178 179 179 175 173 169 163 161